GW6157 Weather Reports


time (UTC)temp
F
wind
direction
speed
knots
gust
knots
rain 1hr
in
rain 24hr
in
rain mn
in
humidity
%
barometer
mb
20260505100020 41 360 0.0 1.7 0.00 0.00 0.00 91 1009.6
20260505094524 41 360 0.0 1.7 0.00 0.00 0.00 90 1009.4
20260505093005 41 360 0.0 1.7 0.00 0.00 0.00 91 1009.1
20260505091507 41 360 0.0 1.7 0.00 0.00 0.00 90 1008.9
20260505090003 41 360 0.0 1.7 0.00 0.00 0.00 90 1008.8
20260505084504 41 360 0.0 1.7 0.00 0.00 0.00 89 1009.0
20260505083005 42 360 0.0 1.7 0.00 0.00 0.00 88 1009.0
20260505081507 43 360 0.0 0.0 0.00 0.00 0.00 86 1009.0
20260505080004 43 360 0.0 1.7 0.00 0.00 0.00 88 1009.0
20260505074503 43 360 0.0 1.7 0.00 0.00 0.00 87 1009.1
20260505073006 44 360 0.0 1.7 0.00 0.00 0.00 86 1009.0
20260505071510 44 360 0.0 1.7 0.00 0.00 0.00 88 1008.7
20260505070011 44 161 1.7 3.5 0.00 0.00 0.00 87 1008.9
20260505064504 44 360 0.0 0.9 0.00 0.00 0.00 87 1008.6
20260505063006 45 360 0.0 1.7 0.00 0.00 0.00 84 1008.5
20260505061522 47 360 0.0 1.7 0.00 0.00 0.00 82 1008.3
20260505060010 47 162 0.0 0.0 0.00 0.01 0.00 82 1008.4
20260505054518 48 360 0.0 0.9 0.00 0.01 0.00 83 1008.6
20260505053004 47 360 0.0 1.7 0.00 0.02 0.00 83 1008.7
20260505051506 48 360 1.7 2.6 0.00 0.02 0.00 82 1008.7
20260505041518 47 360 0.0 2.6 0.00 0.06 0.00 85 1008.4
20260505040007 47 360 1.7 3.5 0.00 0.07 0.00 84 1008.5
20260505034509 47 360 0.9 3.5 0.00 0.09 0.00 83 1008.2
20260505030020 48 142 0.9 2.6 0.00 0.14 0.00 82 1007.9
20260505024528 49 142 1.7 4.3 0.00 0.15 0.14 82 1007.8
20260505023014 48 178 0.9 3.5 0.00 0.16 0.14 82 1007.6
20260505021529 48 170 0.9 3.5 0.00 0.16 0.14 81 1007.4
20260505020022 49 170 0.9 3.5 0.00 0.17 0.14 80 1007.4
20260505014526 49 185 0.0 1.7 0.00 0.17 0.14 79 1007.3
20260505013009 49 185 0.0 2.6 0.00 0.18 0.14 78 1007.2
20260505011504 50 218 0.9 4.3 0.00 0.19 0.14 77 1006.9
20260505010004 50 200 1.7 6.1 0.00 0.20 0.14 76 1006.7
20260505004510 51 223 3.5 7.8 0.00 0.21 0.14 75 1006.4
20260505003010 52 270 3.5 6.1 0.00 0.22 0.14 73 1006.0
20260505001512 52 265 4.3 9.6 0.00 0.22 0.14 72 1005.8
20260505000004 52 239 3.5 10.4 0.00 0.23 0.14 71 1005.8
20260504234503 53 246 6.1 12.2 0.00 0.25 0.14 71 1005.5
20260504233007 53 240 4.3 9.6 0.00 0.29 0.14 70 1005.3
20260504231510 53 231 7.8 15.6 0.00 0.35 0.14 69 1005.0
20260504230016 54 186 4.3 13.0 0.00 0.41 0.14 67 1004.7
20260504224507 54 220 4.3 9.6 0.00 0.48 0.14 67 1004.4
20260504223005 54 248 5.2 8.7 0.00 0.55 0.14 67 1004.2
20260504221533 54 233 6.1 13.0 0.00 0.61 0.14 66 1004.2
20260504220015 54 216 4.3 10.4 0.00 0.67 0.14 66 1004.0
20260504214517 54 219 2.6 7.8 0.00 0.72 0.14 69 1003.9
20260504213004 54 228 4.3 9.6 0.00 0.77 0.14 68 1003.9
20260504211505 54 195 4.3 9.6 0.00 0.81 0.14 67 1003.9
20260504210013 53 191 7.0 12.2 0.00 0.85 0.14 67 1003.9
20260504204517 54 214 6.1 12.2 0.00 0.89 0.14 65 1003.9
20260504203019 54 217 6.1 11.3 0.00 0.92 0.14 64 1003.8
20260504201503 54 202 6.1 11.3 0.00 0.97 0.14 64 1003.7
20260504200007 55 232 8.7 15.6 0.00 1.01 0.14 57 1003.7
20260504194513 56 155 7.0 12.2 0.00 1.07 0.14 48 1003.5
20260504193015 56 208 5.2 14.8 0.00 1.13 0.14 47 1003.5
20260504191520 57 162 9.6 15.6 0.00 1.20 0.14 45 1003.5
20260504190029 58 212 10.4 20.0 0.00 1.28 0.14 42 1003.4
20260504184519 59 191 7.8 21.7 0.00 1.36 0.14 40 1003.2
20260504183018 61 153 9.6 22.6 0.00 1.40 0.14 41 1003.0
20260504181522 61 208 10.4 17.4 0.00 1.44 0.14 43 1002.8
20260504180028 62 163 9.6 16.5 0.00 1.48 0.14 41 1002.9
20260504174508 62 201 8.7 18.2 0.00 1.53 0.14 39 1002.8
20260504173013 63 226 11.3 20.0 0.00 1.58 0.14 34 1002.8
20260504171526 62 182 7.8 18.2 0.00 1.62 0.14 34 1003.0